GW4987 Weather Reports


Display with metric or nautical units.
time (UTC)temp
F
wind
direction
speed
MPH
gust
MPH
rain 1hr
in
rain 24hr
in
rain mn
in
humidity
%
barometer
mb
20260503232012 71 169 12.0 22.0 0.00 0.00 0.00 22 1015.3
20260503231555 70 228 15.0 30.0 0.00 0.00 0.00 22 1015.1
20260503231012 70 180 21.0 26.0 0.00 0.00 0.00 24 1015.3
20260503230555 73 146 13.0 16.0 0.00 0.00 0.00 22 1015.2
20260503230055 72 157 10.0 14.0 0.00 0.00 0.00 23 1015.1
20260503225555 72 207 12.0 20.0 0.00 0.00 0.00 25 1015.2
20260503225013 70 212 8.0 25.0 0.00 0.00 0.00 25 1015.4
20260503224555 72 172 9.0 21.0 0.00 0.00 0.00 25 1015.3
20260503224055 71 103 7.0 22.0 0.00 0.00 0.00 25 1015.4
20260503223555 71 154 8.0 18.0 0.00 0.00 0.00 25 1015.7
20260503223012 73 209 10.0 25.0 0.00 0.00 0.00 24 1015.6
20260503222555 71 177 7.0 24.0 0.00 0.00 0.00 25 1015.7
20260503222056 71 137 11.0 21.0 0.00 0.00 0.00 25 1015.4
20260503221555 72 140 12.0 16.0 0.00 0.00 0.00 25 1015.8
20260503221055 72 132 7.0 28.0 0.00 0.00 0.00 25 1015.9
20260503220556 72 183 12.0 21.0 0.00 0.00 0.00 25 1016.0
20260503214512 72 141 8.0 20.0 0.00 0.00 0.00 24 1016.1
20260503214012 72 153 15.0 21.0 0.00 0.00 0.00 26 1016.1
20260503213536 70 141 5.0 23.0 0.00 0.00 0.00 27 1016.2
20260503213055 71 143 11.0 22.0 0.00 0.00 0.00 27 1016.3
20260503212555 72 147 6.0 16.0 0.00 0.00 0.00 26 1016.2
20260503212056 73 141 2.0 13.0 0.00 0.00 0.00 26 1016.5
20260503211556 71 141 7.0 18.0 0.00 0.00 0.00 27 1016.5
20260503211014 70 189 12.0 30.0 0.00 0.00 0.00 27 1017.0
20260503210555 70 160 7.0 17.0 0.00 0.00 0.00 27 1016.8
20260503210055 72 146 10.0 23.0 0.00 0.00 0.00 27 1016.7
20260503205556 72 186 10.0 24.0 0.00 0.00 0.00 26 1016.7
20260503205013 71 152 13.0 20.0 0.00 0.00 0.00 26 1017.0
20260503204555 71 184 21.0 25.0 0.00 0.00 0.00 25 1017.0
20260503204056 72 207 16.0 23.0 0.00 0.00 0.00 24 1017.2
20260503202012 71 211 10.0 23.0 0.00 0.00 0.00 25 1017.3
20260503201555 71 211 11.0 23.0 0.00 0.00 0.00 23 1017.0
20260503201055 73 176 18.0 22.0 0.00 0.00 0.00 21 1017.4
20260503200512 70 184 6.0 29.0 0.00 0.00 0.00 26 1017.1
20260503200013 71 176 12.0 24.0 0.00 0.00 0.00 24 1017.1
20260503195555 71 184 13.0 17.0 0.00 0.00 0.00 28 1017.4
20260503195013 72 172 14.0 22.0 0.00 0.00 0.00 26 1017.4
20260503194555 70 139 9.0 18.0 0.00 0.00 0.00 26 1017.7
20260503194055 72 196 10.0 18.0 0.00 0.00 0.00 23 1017.5
20260503193555 71 142 6.0 30.0 0.00 0.00 0.00 25 1017.6
20260503193013 72 152 8.0 17.0 0.00 0.00 0.00 27 1017.7
20260503192555 71 201 10.0 24.0 0.00 0.00 0.00 28 1017.6
20260503191013 71 143 5.0 28.0 0.00 0.00 0.00 26 1017.9
20260503190555 71 216 10.0 26.0 0.00 0.00 0.00 27 1017.9
20260503190055 71 129 17.0 21.0 0.00 0.00 0.00 28 1018.0
20260503185555 71 130 9.0 24.0 0.00 0.00 0.00 28 1017.8
20260503185055 71 129 13.0 26.0 0.00 0.00 0.00 28 1018.0
20260503184556 71 193 13.0 23.0 0.00 0.00 0.00 31 1017.9
20260503182513 71 153 8.0 13.0 0.00 0.00 0.00 31 1017.9
20260503182013 69 174 9.0 12.0 0.00 0.00 0.00 33 1018.0
20260503181555 69 116 9.0 12.0 0.00 0.00 0.00 34 1018.1
20260503175555 70 101 10.0 12.0 0.00 0.00 0.00 31 1018.0
20260503175013 71 123 12.0 18.0 0.00 0.00 0.00 32 1018.0
20260503174556 70 72 5.0 19.0 0.00 0.00 0.00 32 1018.0
20260503174056 70 92 7.0 18.0 0.00 0.00 0.00 34 1018.0
20260503173556 71 91 5.0 9.0 0.00 0.00 0.00 32 1018.1
20260503173012 70 139 4.0 17.0 0.00 0.00 0.00 33 1018.2
20260503172555 70 95 5.0 14.0 0.00 0.00 0.00 33 1018.1
20260503172056 69 127 10.0 22.0 0.00 0.00 0.00 35 1018.1
20260503171555 70 63 6.0 15.0 0.00 0.00 0.00 34 1018.0
20260503171056 69 135 6.0 18.0 0.00 0.00 0.00 34 1018.1
20260503170555 69 131 11.0 12.0 0.00 0.00 0.00 35 1018.4
20260503150512 66 127 5.0 6.0 0.00 0.00 0.00 39 1018.5
20260503131013 57 124 4.0 9.0 0.00 0.00 0.00 38 1018.1
20260503130555 56 112 5.0 9.0 0.00 0.00 0.00 38 1018.0
20260503081555 59 197 6.0 7.0 0.00 0.00 0.00 31 1018.9
20260503081014 59 205 5.0 6.0 0.00 0.00 0.00 32 1019.2
20260503080555 59 203 4.0 9.0 0.00 0.00 0.00 32 1018.7
20260503072555 58 209 6.0 6.0 0.00 0.00 0.00 34 1019.0
20260503072056 58 164 3.0 6.0 0.00 0.00 0.00 34 1019.3
20260503071555 58 188 6.0 7.0 0.00 0.00 0.00 34 1019.2
20260503071055 57 177 3.0 4.0 0.00 0.00 0.00 35 1019.2
20260503070556 57 148 0.0 4.0 0.00 0.00 0.00 35 1019.0
20260503053555 60 200 5.0 9.0 0.00 0.00 0.00 31 1019.0
20260503053055 61 191 3.0 11.0 0.00 0.00 0.00 31 1019.0
20260503052555 61 196 6.0 9.0 0.00 0.00 0.00 30 1019.3
20260503052014 62 153 3.0 8.0 0.00 0.00 0.00 30 1019.4
20260503051555 62 168 5.0 8.0 0.00 0.00 0.00 30 1019.3
20260503051056 61 218 10.0 11.0 0.00 0.00 0.00 30 1019.4
20260503050513 62 145 4.0 9.0 0.00 0.00 0.00 30 1019.4
20260503050055 62 180 5.0 8.0 0.00 0.00 0.00 30 1019.4
20260503045555 62 175 8.0 13.0 0.00 0.00 0.00 30 1019.2
20260503045014 62 273 6.0 17.0 0.00 0.00 0.00 30 1019.3
20260503044555 61 213 11.0 13.0 0.00 0.00 0.00 31 1019.0
20260503044056 62 240 8.0 15.0 0.00 0.00 0.00 30 1019.0
20260503042055 62 200 11.0 17.0 0.00 0.00 0.00 30 1018.9
20260503041514 62 215 5.0 14.0 0.00 0.00 0.00 30 1018.9
20260503035555 63 198 11.0 13.0 0.00 0.00 0.00 29 1018.8
20260503035055 62 223 5.0 9.0 0.00 0.00 0.00 30 1018.5
20260503034556 62 191 8.0 10.0 0.00 0.00 0.00 30 1018.5
20260503032514 63 221 4.0 14.0 0.00 0.00 0.00 29 1018.3
20260503032014 63 218 8.0 15.0 0.00 0.00 0.00 29 1018.2
20260503031556 63 188 5.0 10.0 0.00 0.00 0.00 30 1018.2
20260503031013 63 199 9.0 15.0 0.00 0.00 0.00 29 1018.2
20260503030555 63 187 11.0 16.0 0.00 0.00 0.00 30 1018.3
20260503030055 62 194 7.0 9.0 0.00 0.00 0.00 30 1018.0
20260503025555 63 221 6.0 11.0 0.00 0.00 0.00 30 1018.0
20260503025013 63 205 6.0 12.0 0.00 0.00 0.00 30 1018.0
20260503024555 63 197 9.0 13.0 0.00 0.00 0.00 30 1017.9
20260503024055 63 194 7.0 9.0 0.00 0.00 0.00 30 1018.0
20260503023556 64 225 11.0 11.0 0.00 0.00 0.00 30 1018.0
20260503014513 66 194 7.0 12.0 0.00 0.00 0.00 28 1017.9
20260503014013 66 221 5.0 9.0 0.00 0.00 0.00 28 1017.7
20260503013556 67 158 3.0 8.0 0.00 0.00 0.00 28 1017.8
20260503013014 67 195 6.0 16.0 0.00 0.00 0.00 28 1017.7
20260503012556 67 158 4.0 8.0 0.00 0.00 0.00 28 1017.9
20260503012056 67 252 3.0 9.0 0.00 0.00 0.00 28 1018.0
20260503011555 67 196 2.0 8.0 0.00 0.00 0.00 28 1017.9
20260503011013 67 224 8.0 10.0 0.00 0.00 0.00 27 1017.7
20260503010555 67 181 4.0 10.0 0.00 0.00 0.00 27 1017.8
20260503010055 67 156 5.0 11.0 0.00 0.00 0.00 27 1017.8
20260503005555 68 169 8.0 11.0 0.00 0.00 0.00 27 1017.8
20260503005014 68 184 3.0 5.0 0.00 0.00 0.00 27 1017.8
20260503004555 68 216 8.0 9.0 0.00 0.00 0.00 27 1017.8
20260503004056 68 215 5.0 8.0 0.00 0.00 0.00 27 1017.7
20260503003535 68 214 7.0 12.0 0.00 0.00 0.00 26 1017.9
20260503003055 68 175 10.0 14.0 0.00 0.00 0.00 26 1017.8
20260503002555 69 209 5.0 7.0 0.00 0.00 0.00 25 1017.7
20260503002014 70 156 5.0 7.0 0.00 0.00 0.00 25 1017.8
20260503001555 69 126 5.0 7.0 0.00 0.00 0.00 26 1017.6
20260503001056 69 206 5.0 9.0 0.00 0.00 0.00 25 1017.8
20260503000514 69 205 7.0 8.0 0.00 0.00 0.00 25 1017.7
20260503000014 69 128 6.0 6.0 0.00 0.00 0.00 25 1017.7
20260502235556 69 129 11.0 14.0 0.00 0.00 0.00 25 1017.7
20260502235014 69 185 5.0 10.0 0.00 0.00 0.00 25 1017.7
20260502234555 69 227 4.0 7.0 0.00 0.00 0.00 25 1017.8
20260502234056 69 93 7.0 8.0 0.00 0.00 0.00 24 1018.0
20260502233555 69 154 4.0 6.0 0.00 0.00 0.00 24 1017.6
20260502233014 69 137 4.0 8.0 0.00 0.00 0.00 25 1017.7
20260502232555 69 91 5.0 10.0 0.00 0.00 0.00 24 1017.6